Regional Weather Roundup
Issued by NWS Kansas City/Pleasant Hill, MO

Home | Current Version | Previous Version | Graphics & Text | Print | Product List | Glossary Off
Versions: 1 2 3 4 5 6 7 8 9 10 11 12 13 14 15 16 17 18 19 20 21 22 23 24 25 26 27 28 29 30 31 32 33 34 35 36 37 38 39 40 41 42 43 44 45 46 47 48 49 50

000
ASUS43 KEAX 251810
RWREAX

WEATHER ROUNDUP FOR EASTERN KANSAS AND NORTHWEST MISSOURI
NATIONAL WEATHER SERVICE KANSAS CITY/PLEASANT HILL MO
100 PM CDT SUN SEP 25 2016

KSZ040-057-103>105-MOZ028-029-037-043-251900-
...KANSAS CITY METROPOLITAN AREA...

CITY           SKY/WX    TMP DP  RH WIND       PRES   REMARKS
K.C. INTL      CLOUDY    62  54  74 NW7       30.16S
6HR MIN TEMP:  60; 6HR MAX TEMP:  68; 6HR PCP:  0.10;

K.C. DOWNTOWN  CLOUDY    63  54  72 N8        30.15R
6HR MIN TEMP:  63; 6HR MAX TEMP:  71; 6HR PCP:  0.12;

LEES SUMMIT    CLOUDY    63  59  87 N9        30.14S
6HR MIN TEMP:  63; 6HR MAX TEMP:  69; 6HR PCP:  0.74;

OLATHE - IXD   CLOUDY    60  55  83 NW13      30.17S
6HR MIN TEMP:  60; 6HR MAX TEMP:  69; 6HR PCP:  0.32;

OLATHE - OJC   CLOUDY    61  56  83 N12       30.15R
6HR MIN TEMP:  60; 6HR MAX TEMP:  69; 6HR PCP:  0.37;

LAWRENCE       CLOUDY    62  57  83 NW7       30.18R

$$

MOZ001>008-011>017-020>025-030>033-038>040-044>046-053-054-251900-
...NORTHERN AND CENTRAL MISSOURI...

CITY           SKY/WX    TMP DP  RH WIND       PRES   REMARKS
ST. JOSEPH     CLOUDY    63  56  78 NW5       30.15S
6HR MIN TEMP:  59; 6HR MAX TEMP:  69; 6HR PCP:  0.10;

MOSBY          LGT RAIN  63  52  67 NW7       30.14F
WHITEMAN AFB   NOT AVBL
CLINTON        CLOUDY    73  68  83 N6        30.11S
SEDALIA        CLOUDY    78  65  63 N9        30.11F
6HR MIN TEMP:  68; 6HR MAX TEMP:  79;

WARSAW         NOT AVBL
CHILLICOTHE      N/A     69  60  73 W7        30.12S
6HR MIN TEMP:  68; 6HR MAX TEMP:  73;

KIRKSVILLE     LGT RAIN  71  66  84 NW9       30.08F
6HR MIN TEMP:  69; 6HR MAX TEMP:  77; 6HR PCP: TRACE;


$$

MOZ041-047>049-056>058-063>065-088>090-097-251900-
...EASTERN AND SOUTHERN MISSOURI...

CITY           SKY/WX    TMP DP  RH WIND       PRES   REMARKS
ST. LOUIS INTL PTSUNNY   90  67  46 SW9G21    30.05F HX  93
6HR MIN TEMP:  74; 6HR MAX TEMP:  91;

SPIRIT OF STL  CLOUDY    89  69  51 SW13      30.03F HX  93
COLUMBIA       CLOUDY    79  67  66 NW13      30.09S
JEFFERSON CITY CLOUDY    82  66  58 NW12      30.07S
ROLLA          MOSUNNY   86  68  54 W12       30.07F
OSAGE BEACH    PTSUNNY   80  69  69 NW9G17    30.09S
SPRINGFIELD    PTSUNNY   81  69  67 NW12      30.09S
BRANSON        MOSUNNY   84  66  54 W5        30.10F
JOPLIN         CLOUDY    78  68  71 N7        30.11F
WEST PLAINS    MOSUNNY   85  67  54 W7        30.11F

$$

IAZ060-094-KSZ022-034>040-054-083-096-NEZ052-066-093-251900-
...KANSAS...SOUTHEAST NEBRASKA AND IOWA...

CITY           SKY/WX    TMP DP  RH WIND       PRES   REMARKS
TOPEKA         CLOUDY    64  55  72 NW5       30.18S
6HR MIN TEMP:  59; 6HR MAX TEMP:  68; 6HR PCP:  0.22;

MANHATTAN      CLOUDY    67  51  56 N8        30.20S
EMPORIA        CLOUDY    63  56  78 N6        30.19S
CHANUTE        CLOUDY    63  60  90 NW12      30.15R
WICHITA        PTSUNNY   66  50  56 N17G23    30.21R
OMAHA          CLOUDY    70  49  47 NW15      30.12F
LINCOLN        MOSUNNY   71  47  42 NW22G29   30.16F
FALLS CITY     MOSUNNY   65  50  58 NW16G22   30.14F
LAMONI         CLOUDY    64  54  69 NW13      30.10F
DES MOINES     PTSUNNY   68  53  58 NW14      30.06F

$$




USA.gov is the U.S. government's official web portal to all federal, state and local government web resources and services.